Weather in Varva

Ukraine / Chernihiv Region     50˚29′58″N   32˚43′20″E
temp.,
°C
wind,
m/s
gust,
m/s
humid.,
%
clouds,
%
prec.,
mm/h
press.,
hPa
HPBL,
m
28 november, sat
sat2823:00+2˚wsw3785100 0.0 1018264
02:00+2˚wsw3686100 0.1 1018295
05:00+3˚ssw2394100 0.3 1018179
08:00+3˚s2498100 0.9 1018208
11:00+3˚se1297100 1.8 1019139
14:00+3˚ese1198100 3.5 101886
17:00+3˚sse1298100 2.3 101896
20:00+3˚s1297100 3.0 1018127
29 november, sun
sun2923:00+3˚sw2397100 0.8 1018212
02:00+3˚w2397100 1.4 1019204
05:00+2˚nw2397100 1.2 1018182
08:00+2˚nnw2397100 2.6 1019213
11:00+2˚nw1296100 1.4 1020192
14:00+2˚nw1296100 2.7 1021127
17:00+2˚wnw1197100 0.3 102189
20:00+2˚ne2296100 0.3 1023123
30 november, mon
mon3023:00+3˚ne2298100 1.3 102293
02:00+3˚ne1195100 1.6 102236
05:00+3˚nnw3498100 2.2 1022145
08:00+3˚n2496100 2.7 1023180
11:00+3˚nnw3496100 1.1 1023188
14:00+2˚nnw3596100 3.1 1024191
17:00+2˚nnw4697100 3.0 1024229
20:00+1˚nnw5897100 6.1 1025285
1 december, tue
tue123:00nnw5898100 2.1 1026394
02:00nnw61098100 4.7 1026491
05:00n4898100 1.9 1026437
08:00n5898100 3.1 1027433
11:00n5899100 1.1 1027385
14:00nne4699100 1.4 1027265
17:00+1˚nne35100100 0.3 1027165
20:00+1˚e25100100 0.4 1028247
2 december, wed
wed223:00ene2498100 0.0 1027282
02:00ne23100100 0.1 1027187
05:00e3598100 0.1 1027295
08:00−1˚e259699 0.1 1027216
11:00ese349599 0.1 1028350
14:00+1˚ese239199 0.1 1027413
17:00e2394100 0.0 1027220
20:00ese2498100 0.1 1028236